Погода в Владивостоке

Погода в Владивостоке : погода сейчас, прогноз погоды и архив. Всё, что Вы хотите узнать о погоде в Владивостоке!

Хотите узнать прогноз погоды в Владивостоке? Тогда Вам сюда: Погода в Владивостоке

Поиск расширенной информации на нашем сайте:

Другие новости

Новости СМИ2

Главная страница сайта

Новости сайта

03.07.2017

Напоминаем, что на нашем специализированном сайте Метеоцентр.Азия вы можете получить высокодетализированные автоматические прогнозы погоды по пунктам России, СНГ и мира в авиационном формате (включающие направление и скорость ветра, видимость, явления погоды, количество и форму облачности, нижнюю и верхнюю границу облачности).

Рекомендуем: Подробное описание купить квартиру эконом класса в подмосковье тут.

Погода в Владивостоке - сегодня

Время (UTC), дата Ветер
(°,м/с) 
Видим.   Явления Облачность Т
(°С)
Тd
(°С)
f(%) Тe
(°С)
Pmin
(гПа)
dP
(гПа)
Po
(мм)
O2
(г/м3)
Тmin Tmax R s Состояние
почвы
06 18.07.17 140 (ЮВ) 7{10}  20000 м  {морось, туман}  10/10 200 м 
[St]
+16.3 +15.8 97 +26  1008.3  -1  740  278           
09 18.07.17 140 (ЮВ) 8-10{11}  0200 м  слаб. морось{туман}  ?/?  
+15.9 +15.9 100 +26  1007.8  -0.5  739  278    +16.4  0.3     
12 18.07.17 140 (ЮВ) 9-11{12}  0200 м  слаб. морось{туман}  ?/?  
+16.4 +16.4 100 +28  1007.6  -0.1  739  277           
15 18.07.17 150 (ЮВ) 9-12{13}  0200 м  слаб. морось{туман}  ?/?  
+16.6 +16.6 100 +28  1006.2  -1.4  738  277           
18 18.07.17 130 (ЮВ) 7-10{13}  0200 м  слаб. морось{туман}  ?/?  
+17.4 +17.4 100 +31  1006.9  0.8  739  276           
21 18.07.17 150 (ЮВ) 4{10}  0200 м  туман{гроза, ливн. осадки}  ?/?  
+18.1 +18.1 100 +33  1006.3  -0.6  738  275  +15.9      влажная 
00 19.07.17 340 (С) 0200 м  туман{гроза, ливн. осадки}  ?/?  
+19.4 +19.4 100 +38  1007.8  1.6  740  274           
03 19.07.17 340 (С) 5-10{10}  20000 м  гроза, ливневой дождь{туман}  10/10 600 м кучево-дожд. 
[Cb calv]
+21.7 +21.4 98 +44  1006.2  -1.4  739  270           
06 19.07.17 360 (С) 6{11}  20000 м  слаб. ливневой дождь{гроза}  10/10 600 м кучево-дожд. 
[Cb calv]
+20.9 +20 95 +40  1005.5  -0.7  738  271           
09 19.07.17 260 (З) 20000 м  {ливн. осадки}  10/10 600 м кучево-дожд. 
[Cb calv]
+21.4 +20.6 95 +42  1004.4  -1.1  737  270    +23.7  14     
12 19.07.17 190 (Ю) 2{16}  1000 м  гроза, ливневой дождь  10/10 600 м кучево-дожд. 
[Cb calv]
+19.6 +19.3 98 +39  1007.4  2.8  739  273           
15 19.07.17 200 (Ю) 4{13}  20000 м  {гроза, ливн. осадки}  10/10 600 м кучево-дожд. 
[Cb calv]
+19.1 +18.8 98 +37  1005.2  -2.1  738  273           
18 19.07.17 140 (ЮВ) 10 км  слаб. ливневой дождь{гроза}  10/10 600 м кучево-дожд. 
[Cb calv]
+20.6 +19.2 92 +38  1005.3  0.1  738  272           
21 19.07.17 150 (ЮВ) 3{12}  20000 м  {ливн. осадки}  10/10 600 м кучево-дожд. 
[Cb calv]
+19.3 +19 98 +37  1005.6  0.2  738  273  +19.1    15    влажная 
00 20.07.17 130 (ЮВ) 20000 м  {ливн. осадки}  10/10 600 м кучево-дожд. 
[Cb calv]
+19.7 +19.4 98 +38  1005.7  0.1  738  273           
03 20.07.17 140 (ЮВ) 6{12}  0200 м  туман  ?/?  
+20 +20 100 +39  1004.6  -1  737  272           
06 20.07.17 140 (ЮВ) 0200 м  туман  ?/?  
+20.6 +20.6 100 +41  1003.7  -0.8  737  271           
09 20.07.17 150 (ЮВ) 0200 м  ливневой дождь{туман}  ?/?  
+20.9 +20.9 100 +42  1003.4  -0.2  737  270    +21.9     
12 20.07.17 140 (ЮВ) 0200 м  ливневой дождь{туман}  ?/?  
+21.6 +21.6 100 +45  1003.4  -0.1  736  269           
15 20.07.17 150 (ЮВ) 0200 м  туман{ливн. осадки}  ?/?  
+20.7 +20.7 100 +42  1001.9  -1.4  735  270           
18 20.07.17 330 (СЗ) 7-11{11}  0200 м  туман{ливн. осадки}  ?/?  
+21.1 +21.1 100 +43  1000.1  -1.8  734  269           
21 20.07.17 340 (С) 7-10{24}  0200 м  ливневой дождь{гроза}  ?/?  
+17.6 +17.6 100 +31  1001.4  1.1  735  274  +17.6    58    мокрая 
00 21.07.17 330 (СЗ) 12-19{20}  0200 м  слаб. ливневой дождь{гроза}  ?/?  
+16.2 +16.2 100 +26  1004.4  2.8  737  277  +16.1         
03 21.07.17 340 (С) 11-18{21}  20000 м  {ливн. осадки, туман}  ?/? 600 
+20.6 +17.2 81 +34  1004.7  0.6  737  272           
06 21.07.17 340 (С) 9-15{21}  20000 м  {ливн. осадки, туман}  3/3 600 м 
[Sc diur, vesp]
+23.8 +16.7 64 +36  1006.1  1.6  739  270           
Время (UTC), дата Ветер
(°,м/с) 
Видим.   Явления Облачность Т
(°С)
Тd
(°С)
f(%) Тe
(°С)
Pmin
(гПа)
dP
(гПа)
Po
(мм)
O2
(г/м3)
Тmin Tmax R s Состояние
почвы

Для получения пояснительной информации подведите курсор к названию столбца.

ПОГОДА в Владивостоке - архив

Всё, что Вы хотите узнать о погоде в Владивостоке - удобно и подробно!

Выберите нужную дату (начиная с 1 января 2015* года) и нажмите кнопку "Найти".
Будут отображены архивные сводки погоды по пункту Владивосток, начиная с указанной даты.


Отображать данные в формате CSV (для использования в таблицах Excel)


Внимание! Наш архив погоды предназначен исключительно для личного некоммерческого использования в познавательных целях. Если Вам необходимы официальные справки о состоянии погоды (для производственных, юридических, коммерческих и т.п. целей), обращайтесь в органы Росгидромета.

*Примечание: данная дата относится к архиву по метеостанциям СССР (Россия, СНГ, Балтия).
Архив по метеостанциям Зарубежной Европы и Азии (кроме Китая) хранится 10 дней, по другим регионам земного шара (Китай, Африка, Америка, Австралия, Океания) - 1 день.

Владивосток - район местоположения метеостанции


Название, широта, долгота, высота метеостанции:
Владивосток (город) 43.1°ш. 131.9°д. 183 м над ур. моря [Российская Федерация]

Дополнительная информация

В oтличие oт бoльшинства пoгoдных сайтoв мы публикуем пoдрoбную метеoинфoрмацию в детальнoм прoфессиoнальнoм фoрмате.

Характеристики температуры и влажнoсти вoздуха измеряются на высoте 2 м в тени вдали oт зданий и деревьев.
Скoрoсть ветра измеряется на высoте 10 м (на урoвне рoста челoвека скoрoсть ветра ниже в 1.5-2 раза). Если метеoстанция нахoдится в гoрoде или в лесу, тo скoрoсть ветра занижена на 2-4 м/с пo сравнению с oткрытым местoм. Скoрoсть ветра над акватoриями крупных рек и oзёр, а также на вершинах хoлмoв на 2-5 м/с выше, чем в oбычных услoвиях.
Атмoсфернoе давление в разных тoчках местнoсти мoжет значительнo oтличаться oт давления на метеoстанции, в зависимoсти oт услoвий рельефа (при пoдъёме на 10 м давление пoнижается примернo на 1 мм рт.ст.).